Weather Roundup
Issued by NWS Springfield, MO

Home | Current Version | Previous Version | Text Only | Print | Product List | Glossary On
Versions: 1 2 3 4 5 6 7 8 9 10 11 12 13 14 15 16 17 18 19 20 21 22 23 24 25 26 27 28 29 30 31 32 33 34 35 36 37 38 39 40 41 42 43 44 45 46 47 48 49 50
000
NZUS99 KSGF 240557
HRRSGF

HOURLY WEATHER
NATIONAL WEATHER SERVICE SPRINGFIELD MO
100 AM CDT SUN SEP 24 2017

......SGF CWA......

CITY           SKY/WX    TMP DP  RH WIND       PRES   REMARKS
SPRINGFIELD    CLEAR     74  65  73 SE8       29.99S
6HR MIN TEMP:  74; 6HR MAX TEMP:  85;

JOPLIN         CLEAR     77  66  68 SE9       29.96S
6HR MIN TEMP:  72; 6HR MAX TEMP:  84;

WEST PLAINS    CLEAR     66  63  90 CALM      30.04S
6HR MIN TEMP:  66; 6HR MAX TEMP:  84;

ROLLA          CLEAR     73  63  70 SE8       30.02S
6HR MIN TEMP:  73; 6HR MAX TEMP:  83;


......SURROUNDING SGF CWA......

CITY           SKY/WX    TMP DP  RH WIND       PRES   REMARKS
CHANUTE        CLEAR     72  65  78 SE7       29.94S
PARSONS        CLEAR     71  64  78 SE3       29.94S
COFFEYVILLE    PTCLDY    70  66  87 CALM      29.92S
EMPORIA        CLEAR     73  63  70 SE10      29.92F
HARRISON AR    CLEAR     70  64  81 E3        30.01F

......KANSAS AND MISSOURI......

CITY           SKY/WX    TMP DP  RH WIND       PRES   REMARKS
KANSAS CTY INT CLEAR     72  67  84 SE8       29.95F
SEDALIA        CLEAR     72  69  90 SE6       29.99R
ST JOSEPH      CLEAR     67  66  97 CALM      29.94S
ST LOUIS       CLEAR     79  62  56 SE7       30.02S
WICHITA        PTCLDY    75  66  73 SE9       29.90S
TOPEKA         CLEAR     69  66  90 CALM      29.93R
OLATHE         CLEAR     73  68  84 SE6       29.95F

......TENNESSEE......

CITY           SKY/WX    TMP DP  RH WIND       PRES   REMARKS
MEMPHIS        NOT AVBL
NASHVILLE      CLEAR     72  69  90 CALM      30.02F

......ARKANSAS.......

CITY           SKY/WX    TMP DP  RH WIND       PRES   REMARKS
FAYETTEVILLE   CLEAR     63  63 100 CALM      29.99S
FT SMITH       CLEAR     75  66  73 NE3       29.94S
LITTLE ROCK    CLEAR     75  71  87 CALM      29.95S

......OKLAHOMA.......

CITY           SKY/WX    TMP DP  RH WIND       PRES   REMARKS
TULSA          PTCLDY    76  65  68 SE9       29.89S
PONCA CITY     PTCLDY    75  65  70 SE10      29.89F
MCALESTER      CLEAR     74  65  73 E5        29.91F
OKLAHOMA CITY  PTCLDY    75  65  70 SE9       29.90S

......IOWA............

CITY           SKY/WX    TMP DP  RH WIND       PRES   REMARKS
DES MOINES     NOT AVBL
QUAD CITIES    CLEAR     72  63  73 CALM      30.01F

......ILLINOIS........

CITY           SKY/WX    TMP DP  RH WIND       PRES   REMARKS
QUINCY         NOT AVBL
CHICAGO        CLEAR     76  65  68 SE5       30.06S




USA.gov is the U.S. government's official web portal to all federal, state and local government web resources and services.